User: anonymous   Login
Location: Lafig�re
(44.4503°N, 4.0357°E)
Time: 06:27:56
(UTC+00:00)
Language:

SR - Orbit

View from above orbital plane
View from above orbital plane
View from above satellite
View from above satellite

Ground track
Ground track

The orbit data is extracted from the following two-line orbital elements,

1 00046U 60007B   21027.53134129 -.00000010  00000-0  21094-4 0  9995
2 00046  66.6900 161.0527 0214790 322.6200  36.0124 14.49361382171588
Epoch (UTC): 27 January 2021 12:45:07
Eccentricity: 0.0214790
inclination: 66.6900°
perigee height: 575 km
apogee height: 880 km
right ascension of ascending node: 161.0527°
argument of perigee: 322.6200°
revolutions per day: 14.49361382
mean anomaly at epoch: 36.0124°
orbit number at epoch: 17158

The dashed part of the orbit path shows where the satellite is in the earth's shadow,  

DLR